Change the Weather History Date:

Monday, October 14, 2013

  Actual Average Record
Temperature  
Mean Temperature 78 °F -  
Max Temperature 86 °F 87 °F 93 °F (2005)
Min Temperature 69 °F 72 °F 37 °F (1999)
Cooling Degree Days 12    
Growing Degree Days 28 (Base 50)    
Moisture  
Dew Point 71 °F    
Average Humidity 81    
Maximum Humidity 100    
Minimum Humidity 55    
Precipitation  
Precipitation 0.00 in - - ()
Sea Level Pressure  
Sea Level Pressure 29.94 in    
Wind  
Wind Speed 4 mph ()    
Max Wind Speed 13 mph    
Max Gust Speed -    
Visibility 7.0 miles    
Events      
Averages and records for this station are not official NWS values.
T = Trace of Precipitation, MM = Missing Value Source: Averaged Metar Reports

Daily Weather History Graph

Daily Weather History Graph

Search for Another Location

Airport or City:

Trip Planner

Search our weather history database for the weather conditions in past years. The results will help you decide how hot, cold, wet, or windy it might be!

Date:

Astronomy

Oct. 14, 2013 Rise Set
Actual Time 6:42 AM CDT 6:23 PM CDT
Civil Twilight 6:20 AM CDT 6:46 PM CDT
Nautical Twilight 5:54 AM CDT 7:11 PM CDT
Astronomical Twilight 5:28 AM CDT 7:37 PM CDT
Moon 3:24 PM CDT (10/14) 2:31 AM CDT (10/14)
Length of Visible Light 12h 25m
Length of Day
11h 41m
Waxing Gibbous, 79% of the Moon is Illuminated
Oct 14
Waxing Gibbous
Oct 18
Full
Oct 26
Last Quarter
Nov 3
New
Nov 9
First Quarter

Hourly Weather History & Observations

Time (CDT) Temp. Heat Index Dew Point Humidity Pressure Visibility Wind Dir Wind Speed Gust Speed Precip Events Conditions
12:42 AM 71.6 °F - 69.8 °F 94% 29.95 in 7.0 mi WNW 4.6 mph - N/A   Partly Cloudy
1:44 AM 71.6 °F - 69.8 °F 94% 29.95 in 7.0 mi NW 2.3 mph - N/A   Partly Cloudy
2:40 AM 69.8 °F - 68.0 °F 94% 29.93 in 7.0 mi NW 4.6 mph - N/A   Partly Cloudy
3:42 AM 69.8 °F - 69.8 °F 100% 29.92 in 7.0 mi WNW 4.6 mph - N/A   Scattered Clouds
4:45 AM 71.6 °F - 69.8 °F 94% 29.93 in 7.0 mi NW 4.6 mph - N/A   Scattered Clouds
5:40 AM 71.6 °F - 69.8 °F 94% 29.93 in 7.0 mi WNW 2.3 mph - N/A   Scattered Clouds
6:48 AM 69.8 °F - 69.8 °F 100% 29.94 in 7.0 mi NW 4.6 mph - N/A   Scattered Clouds
7:47 AM 73.4 °F - 71.6 °F 94% 29.96 in 7.0 mi WNW 4.6 mph - N/A   Scattered Clouds
8:46 AM 78.8 °F - 75.2 °F 89% 29.97 in 7.0 mi NNW 3.5 mph - N/A   Scattered Clouds
9:41 AM 84.2 °F 90.9 °F 73.4 °F 70% 29.97 in 7.0 mi ENE 3.5 mph - N/A   Scattered Clouds
10:42 AM 84.2 °F 89.6 °F 71.6 °F 66% 29.98 in 7.0 mi ENE 9.2 mph - N/A   Scattered Clouds
11:52 AM 86.0 °F 91.8 °F 71.6 °F 62% 29.97 in 7.0 mi ENE 12.7 mph - N/A   Scattered Clouds
12:42 PM 86.0 °F 91.8 °F 71.6 °F 62% 29.97 in 7.0 mi NNE 4.6 mph - N/A   Scattered Clouds
1:51 PM 86.0 °F 93.4 °F 73.4 °F 66% 29.93 in 7.0 mi East 4.6 mph - N/A   Scattered Clouds
2:50 PM 84.2 °F 88.4 °F 69.8 °F 62% 29.91 in 7.0 mi ENE 8.1 mph - N/A   Mostly Cloudy
3:44 PM 86.0 °F 89.4 °F 68.0 °F 55% 29.90 in 7.0 mi NE 4.6 mph - N/A   Mostly Cloudy
4:40 PM 84.2 °F 89.6 °F 71.6 °F 66% 29.90 in 7.0 mi NE 4.6 mph - N/A   Mostly Cloudy
5:43 PM 82.4 °F 87.2 °F 71.6 °F 70% 29.90 in 7.0 mi NE 4.6 mph - N/A   Mostly Cloudy
6:43 PM 78.8 °F - 69.8 °F 74% 29.92 in 7.0 mi ENE 2.3 mph - N/A   Scattered Clouds
7:42 PM 77.0 °F - 71.6 °F 83% 29.92 in 7.0 mi NE 3.5 mph - N/A   Scattered Clouds
8:41 PM 75.2 °F - 69.8 °F 83% 29.94 in 7.0 mi NNE 2.3 mph - N/A   Clear
9:48 PM 75.2 °F - 69.8 °F 83% 29.92 in 7.0 mi North 5.8 mph - N/A   Clear
10:47 PM 73.4 °F - 69.8 °F 88% 29.96 in 7.0 mi North 5.8 mph - N/A   Clear
11:46 PM 71.6 °F - 69.8 °F 94% 29.95 in 7.0 mi NNE 5.8 mph - N/A   Clear